SCP
0 0 0 0 0 0 0 0 0 0 0 0 0 0 0 0 0 0 0 0 0 0 0 0 0 0 0 0 0 0 0 0 0 0 0 0 0 0 0 0 0 0 0
0 0 0 0 0 0 0 0 0 0 0 0 0 0 0 0 0 0 0 0 0 0 0 0 0 0 0 0 0 0 0 0 0 0 0 0 0 0 0 0 0 0 0
0 0 0 0 0 0 0 0 0 0 0 0 0 0 0 0 0 0 0 0 0 0 0 0 0 0 0 0 0 0 0 0 0 0 0 0 0 0 0 0 0 0 0
0 0 0 0 0 0 0 0 0 0 0 0 0 0 0 0 0 0 0 0 0 0 0 0 0 0 0 0 0 0 0 0 0 0 0 0 0 0 0 0 0 0 0
0 0 0 0 0 0 0 0 0 0 0 0 0 0 0 0 0 0 0 0 0 0 0 0 0 0 0 0 0 0 0 0 0 0 0 0 0 0 0 0 0 0 0
0 0 0 0 0 0 0 0 0 0 0 0 0 0 0 0 0 0 0 0 0 0 0 0 0 0 0 0 0 0 0 0 0 0 0 0 0 0 0 0 0 0 0
0 0 0 0 0 0 0 0 0 0 0 0 0 0 0 0 0 0 0 0 0 0 0 0 0 0 0 0 0 0 0 0 0 0 0 0 0 0 0 0 0 0 0
0 0 0 0 0 0 0 0 0 0 0 0 0 0 0 0 0 0 0 0 0 0 0 0 0 0 0 0 0 0 0 0 0 0 0 0 0 0 0 0 0 0 0
0 0 0 0 0 0 0 0 0 0 0 0 0 0 0 0 0 0 0 0 0 0 0 0 0 0 0 0 0 0 0 0 0 0 0 0 0 0 0 0 0 0 0
0 0 0 0 0 0 0 0 0 0 0 0 0 0 0 0 0 0 0 0 0 0 0 0 0 0 0 0 0 0 0 0 0 0 0 0 0 0 0 0 0 0 0
0 0 0 0 0 0 0 0 0 0 0 0 0 0 0 0 0 0 0 0 0 0 0 0 0 0 0 0 0 0 0 0 0 0 0 0 0 0 0 0 0 0 0
0 0 0 0 0 0 0 0 0 0 0 0 0 0 0 0 0 0 0 0 0 0 0 0 0 0 0 0 0 0 0 0 0 0 0 0 0 0 0 0 0 0 0
0 0 0 0 0 0 0 0 0 0 0 0 0 0 0 0 0 0 0 0 0 0 0 0 0 0 0 0 0 0 0 0 0 0 0 0 0 0 0 0 0 0 0
0 0 0 0 0 0 0 0 0 0 0 0 0 0 0 0 0 0 0 0 0 0 0 0 0 0 0 0 0 0 0 0 0 0 0 0 0 0 0 0 0 0 0
0 0 0 0 0 0 0 0 0 0 0 0 0 -0 0 0 0 0 0 0 0 0 0 0 0 0 0 0 0 0 0 0 0 0 0 0 0 0 0 0 0 0 0
0 0 0 0 0 0 0 0 0 0 0 0 -0 -0 0 0 0 0 0 0 0 0 0 0 0 0 0 0 0 0 0 0 0 0 0 0 0 0 0 0 0 0 0
0 0 0 0 0 0 0 0 0 0 0 0 0 -0 0 0 0 0 0 0 0 0 0 0 0 0 0 0 0 0 0 0 0 0 0 0 0 0 0 0 0 0 0
0 0 0 0 0 0 0 0 0 0 0 0 0 0 0 0 0 0 0 0 0 0 0 0 0 0 0 0 0 0 0 0 0 0 0 0 0 0 0 0 0 0 0
0 0 0 0 0 0 0 0 0 0 0 0 0 0 0 0 0 0 0 0 0 0 0 0 0 0 0 0 0 0 0 0 0 0 0 0 0 0 0 0 0 0 0
0 0 0 0 0 0 0 0 0 0 0 0 0 0 0 0 0 0 0 0 0 0 0 0 0 0 0 0 0 0 0 0 0 0 0 0 0 0 0 0 0 0 0
0 0 0 0 0 0 0 0 0 0 0 0 0 0 0 0 0 0 0 0 0 0 0 0 0 0 0 0 0 0 0 0 0 0 0 0 0 0 0 0 0 0 0
0 0 0 0 0 0 0 0 0 0 0 0 0 0 0 0 0 0 0 0 0 0 0 0 0 0 0 0 0 0 0 0 0 0 0 0 0 0 0 0 0 0 0
0 0 0 0 0 0 0 0 0 0 0 0 0 0 0 0 0 0 0 0 0 0 0 0 0 0 0 0 0 0 0 0 0 0 0 0 0 0 0 0 0 0 0
0 0 0 0 0 0 0 0 0 0 0 0 0 0 0 0 0 0 0 0 0 0 0 0 0 0 0 0 0 0 0 0 0 0 0 0 0 0 0 0 0 0 0
0 0 0 0 0 0 0 0 0 0 0 0 0 0 0 0 0 0 0 0 0 0 0 0 0 0 0 0 0 0 0 0 0 0 0 0 0 0 0 0 0 0 0
0 0 0 0 0 0 0 0 0 0 0 0 0 0 0 0 0 0 0 0 0 0 0 0 0 0 0 0 0 0 0 0 0 0 0 0 0 0 0 0 0 0 0
Wind_Speed
7 8 9 9 9 10 10 10 10 11 11 11 11 11 11 10 10 10 10 11 11 11 11 11 11 11 10 10 10 9 9 8 7 7 7 7 6 6 5 5 5 4 6
9 9 10 9 10 10 10 11 10 10 10 11 11 10 10 10 10 10 10 10 11 11 11 11 11 10 10 10 9 9 8 7 6 5 5 5 5 6 6 5 5 4 6
10 10 9 9 10 10 11 11 11 10 10 10 10 10 11 10 10 10 9 10 10 10 10 10 10 10 10 9 9 9 8 7 6 5 3 2 4 6 6 6 6 7 6
10 9 9 10 10 10 10 10 11 11 10 10 10 11 11 10 10 10 10 10 10 10 10 10 10 10 9 9 9 8 8 8 7 6 3 3 4 7 7 7 7 7 6
10 10 10 10 10 10 10 10 10 10 11 11 11 11 11 11 11 11 11 10 10 10 10 10 10 9 9 8 8 8 8 8 8 6 3 4 4 7 7 7 6 6 6
10 10 9 10 10 10 10 10 10 10 11 11 11 11 11 11 11 11 11 11 10 10 10 10 10 9 8 8 8 8 8 8 6 4 4 4 4 7 8 7 7 6 6
9 9 9 10 10 10 10 10 10 10 11 10 11 11 11 11 10 10 11 10 10 10 10 9 9 8 8 8 7 7 7 7 3 3 4 4 5 8 9 8 7 7 6
9 9 9 10 10 10 10 10 10 10 10 10 10 10 10 10 10 10 10 10 10 9 9 9 8 8 7 7 6 6 7 7 5 5 5 5 8 9 9 8 8 8 7
8 8 7 7 8 10 10 9 10 9 9 9 9 9 9 9 9 9 9 9 9 9 9 8 8 7 6 6 5 6 7 7 4 3 6 5 9 9 9 9 8 8 8
7 7 6 6 7 7 7 9 9 8 8 8 7 6 6 7 8 8 8 7 7 7 7 7 7 6 5 4 4 5 6 5 3 5 4 6 11 10 10 9 9 9 8
5 5 5 5 6 6 6 7 6 6 5 5 4 4 3 3 3 4 7 7 7 5 5 5 4 3 2 1 2 3 3 2 4 5 4 8 11 10 10 10 10 9 9
5 4 4 5 6 5 5 5 3 3 2 2 2 2 1 2 3 5 6 6 5 4 3 2 1 1 1 0 0 1 1 3 4 4 5 10 11 10 10 10 10 10 10
5 4 4 5 5 5 3 3 1 2 1 1 2 2 2 3 2 3 2 2 2 2 1 1 1 1 0 1 1 2 2 3 3 3 5 10 11 11 10 9 9 10 10
5 4 4 5 4 4 4 3 2 1 1 1 1 2 2 1 1 1 1 1 1 1 0 0 0 1 2 2 2 3 4 3 3 3 4 9 10 9 9 9 9 9 10
5 3 4 4 4 4 4 2 3 2 2 2 1 1 2 2 1 2 2 1 2 1 1 1 2 3 3 3 3 4 4 4 3 3 3 7 9 8 8 8 8 9 9
5 4 3 4 4 4 3 2 2 3 2 2 1 2 3 2 2 2 3 2 2 2 2 2 2 2 2 2 3 3 3 3 3 3 3 4 7 8 8 8 7 8 8
6 5 4 3 5 4 3 2 3 2 2 2 1 2 3 2 2 2 3 2 2 2 2 2 3 2 2 2 2 2 2 2 2 3 3 3 3 6 7 8 8 7 8
5 5 4 4 5 4 3 3 2 2 2 2 2 2 3 3 3 3 3 2 2 3 2 2 2 2 2 2 2 1 1 1 2 2 2 3 2 3 4 6 7 7 7
6 6 5 4 4 4 3 3 3 3 2 2 2 2 3 3 3 3 3 2 3 3 2 2 2 2 2 2 1 1 1 1 1 2 2 3 2 3 2 4 5 5 6
6 6 6 5 3 3 3 3 2 2 2 2 2 2 3 2 3 3 2 2 3 3 2 2 2 2 1 1 1 1 0 0 1 2 2 2 2 3 3 2 2 3 5
5 5 6 5 4 3 2 2 2 2 2 2 2 2 3 3 3 3 2 2 2 2 1 2 2 2 1 1 1 2 1 1 2 1 1 1 2 2 2 2 2 2 2
5 5 6 6 5 4 2 2 2 2 2 2 1 2 2 2 2 2 2 2 2 2 2 2 2 1 1 1 1 1 1 2 2 1 1 1 1 2 2 3 2 2 2
5 5 5 5 5 4 4 2 2 2 1 2 2 1 1 2 3 3 2 2 1 1 1 1 1 2 1 2 2 1 1 0 2 1 0 1 1 1 2 2 3 3 3
5 5 5 6 6 5 5 3 3 2 2 2 2 2 1 1 2 1 1 1 1 1 1 1 2 1 1 1 2 1 0 1 1 1 2 2 2 2 2 2 3 3 3
5 4 4 5 5 5 5 4 3 2 2 1 2 2 2 1 1 1 1 1 1 1 1 1 2 2 1 1 1 1 2 2 1 1 1 2 2 1 2 1 2 2 2
5 4 3 4 4 5 5 5 3 3 2 2 2 2 1 1 1 1 1 1 1 1 1 1 1 1 1 1 1 1 0 0 1 0 0 1 0 1 1 1 1 1 1
Wind_Direction
92 93 80 71 69 66 64 67 68 71 73 74 72 74 74 71 70 73 76 78 76 76 73 70 68 64 63 64 64 64 63 65 70 73 73 75 76 72 64 63 68 79 80
100 96 84 75 73 69 67 70 71 74 75 75 72 74 75 74 72 71 77 80 79 76 73 68 66 63 60 62 63 62 59 55 55 61 69 74 82 79 72 63 60 69 72
101 101 90 77 75 71 71 71 70 76 78 77 75 74 74 73 73 73 78 80 78 76 73 69 66 62 57 56 60 58 51 44 37 27 24 73 83 79 77 71 68 70 69
95 94 89 82 79 75 72 71 72 76 78 77 75 72 72 71 69 74 81 80 79 76 74 72 69 63 58 55 55 53 43 33 23 9 20 51 67 76 73 70 70 68 66
93 94 93 86 83 79 76 73 73 75 77 77 76 73 71 71 73 76 80 81 79 76 73 71 68 63 60 57 52 44 33 24 15 17 37 57 61 74 73 70 68 67 63
96 98 98 92 89 86 81 76 75 74 77 78 77 73 70 69 73 78 79 77 77 74 72 70 66 62 56 51 45 35 24 18 7 31 44 58 66 72 71 70 68 65 62
97 101 103 97 94 90 86 81 78 78 77 79 79 75 72 70 72 78 79 78 77 76 75 70 65 62 57 50 41 30 23 15 19 44 52 56 72 75 71 68 63 60 57
105 106 105 102 102 96 90 85 82 81 80 83 83 80 75 76 79 79 81 80 80 78 77 74 70 68 61 53 40 25 18 14 35 51 57 54 68 73 71 66 61 58 54
108 110 116 120 112 104 97 91 89 88 88 90 90 88 86 83 86 88 84 82 80 79 78 75 72 73 67 59 43 25 22 27 21 41 55 54 62 67 70 67 62 58 56
110 114 122 126 125 122 113 102 100 99 99 102 103 102 102 99 94 94 90 91 89 87 88 85 80 74 70 64 40 20 21 21 36 54 54 56 60 63 62 61 60 57 56
112 121 129 129 122 119 123 116 119 114 112 121 126 135 135 123 117 103 95 98 94 95 99 98 96 100 96 72 21 5 13 56 63 62 55 60 59 59 58 57 57 56 55
121 122 123 115 113 115 115 124 137 126 129 138 130 144 147 108 97 97 107 116 110 107 108 124 178 199 201 226 343 1 38 64 68 70 63 64 62 63 62 60 59 57 56
121 116 116 115 114 113 110 117 106 107 123 118 100 99 86 89 104 111 127 129 141 143 147 186 223 245 165 99 76 86 56 62 67 65 65 66 64 61 60 60 59 57 54
125 125 120 113 117 114 109 108 102 90 98 69 56 79 84 79 71 90 104 121 130 122 155 124 144 47 36 60 69 78 72 68 75 79 76 70 68 64 60 60 60 58 54
130 131 116 114 116 116 109 110 103 80 73 83 56 57 82 75 58 66 72 61 60 63 53 29 54 55 37 34 36 54 71 77 86 87 85 75 71 67 62 62 61 57 53
138 134 114 119 111 104 109 116 109 99 79 62 43 40 68 75 67 54 63 53 50 44 31 43 55 61 55 51 33 37 51 60 78 95 104 84 72 68 64 61 59 55 52
142 134 123 118 102 99 98 96 97 104 97 81 41 34 56 63 72 69 61 50 38 44 37 41 42 45 51 52 40 41 52 43 63 91 102 112 96 76 70 67 62 57 54
142 136 134 133 115 110 96 86 83 77 74 65 46 31 44 49 55 66 63 44 37 41 34 35 43 40 35 39 18 12 50 47 37 82 104 110 113 100 88 83 73 63 53
151 148 144 127 118 118 111 100 87 82 73 67 55 30 32 40 47 65 58 41 52 42 32 27 40 39 34 29 357 349 24 55 41 45 62 80 96 110 109 98 88 77 62
156 151 140 132 126 124 112 105 93 86 82 75 65 39 27 31 45 62 57 33 60 48 27 28 38 21 36 6 345 12 358 103 87 61 45 45 64 102 116 119 107 86 72
154 149 140 142 140 127 110 104 99 94 85 75 71 63 44 34 37 55 57 39 49 60 42 40 45 22 8 9 24 350 345 54 73 97 77 40 41 71 92 121 132 117 88
161 156 151 153 149 136 123 126 130 122 119 116 96 69 60 52 40 51 59 69 60 49 30 40 42 25 347 8 53 29 9 7 349 76 103 105 65 60 53 67 85 100 99
165 163 155 151 143 137 138 123 112 100 100 94 100 81 53 57 59 47 32 55 81 83 59 37 44 58 344 336 32 70 97 267 311 327 150 98 86 71 65 47 65 70 81
166 161 158 154 149 148 142 141 142 146 151 158 140 134 118 82 80 67 52 42 70 78 76 35 47 25 35 339 339 355 36 124 129 322 335 20 59 70 71 60 66 65 72
158 156 161 156 152 152 148 150 155 151 145 142 127 134 142 118 105 83 66 51 64 77 72 58 49 17 20 1 348 337 349 358 344 119 313 329 8 37 61 68 80 77 75
147 147 155 155 151 151 153 155 162 155 153 148 143 150 152 144 161 159 124 98 85 96 82 70 74 27 9 359 357 4 9 10 328 37 241 274 304 313 39 63 85 98 93